When you browse on this site, cookies collect data to enhance your experience and personalize the content and advertising you see.
Visit our Privacy Policy to learn more. By continuing to use the site, you agree to this use of cookies and data.
  • In Latvia
  • List of Countries
  • For 7 days
  • Water Temperature
  • Satellite Maps
  • Weather Map
  • Weather Widgets
  • user-avatar
    Login

    Hourly Weather San Juan

    Today, 21 July, Sunday

    Time Temperature Precipitation Wind Pressure Humidity
    00:00 +16°C° 0 mm 3 mps 694 mmHg 26%
    01:00 +16°C° 0 mm 3 mps 694 mmHg 27%
    02:00 +17°C° 0 mm 3 mps 694 mmHg 24%
    03:00 +17°C° 0 mm 4 mps 694 mmHg 20%
    04:00 +17°C° 0 mm 4 mps 694 mmHg 17%
    05:00 +17°C° 0 mm 4 mps 694 mmHg 16%
    06:00 +17°C° 0 mm 4 mps 695 mmHg 15%
    07:00 +17°C° 0 mm 4 mps 695 mmHg 14%
    08:00 +20°C° 0 mm 6 mps 696 mmHg 11%
    09:00 +23°C° 0 mm 8 mps 697 mmHg 9%
    10:00 +28°C° 0 mm 10 mps 698 mmHg 6%
    11:00 +26°C° 0 mm 10 mps 697 mmHg 15%
    12:00 +23°C° 0 mm 9 mps 697 mmHg 23%
    13:00 +21°C° 0 mm 8 mps 697 mmHg 31%
    14:00 +18°C° 0 mm 8 mps 697 mmHg 37%
    15:00 +16°C° 0 mm 8 mps 698 mmHg 43%
    16:00 +13°C° 0 mm 8 mps 698 mmHg 49%
    17:00 +12°C° 0 mm 8 mps 699 mmHg 48%
    18:00 +11°C° 0 mm 8 mps 700 mmHg 47%
    19:00 +10°C° 0 mm 7 mps 701 mmHg 46%
    20:00 +10°C° 0 mm 7 mps 702 mmHg 42%
    21:00 +9°C° 0 mm 7 mps 703 mmHg 39%
    22:00 +9°C° 0 mm 7 mps 704 mmHg 35%
    23:00 +9°C° 0 mm 6 mps 704 mmHg 34%

    Tomorrow, 22 July, Monday

    Time Temperature Precipitation Wind Pressure Humidity
    00:00 +8°C° 0 mm 5 mps 705 mmHg 34%
    01:00 +8°C° 0 mm 4 mps 705 mmHg 34%
    02:00 +8°C° 0 mm 4 mps 705 mmHg 34%
    03:00 +8°C° 0 mm 4 mps 705 mmHg 34%
    04:00 +7°C° 0 mm 4 mps 706 mmHg 34%
    05:00 +8°C° 0 mm 3 mps 706 mmHg 34%
    06:00 +8°C° 0 mm 3 mps 707 mmHg 34%
    07:00 +7°C° 0 mm 3 mps 707 mmHg 34%
    08:00 +8°C° 0 mm 4 mps 708 mmHg 30%
    09:00 +10°C° 0 mm 4 mps 708 mmHg 26%
    10:00 +12°C° 0 mm 5 mps 708 mmHg 22%
    11:00 +12°C° 0 mm 5 mps 708 mmHg 21%
    12:00 +13°C° 0 mm 5 mps 707 mmHg 20%
    13:00 +13°C° 0 mm 4 mps 707 mmHg 19%
    14:00 +13°C° 0 mm 4 mps 707 mmHg 19%
    15:00 +13°C° 0 mm 4 mps 706 mmHg 19%
    16:00 +13°C° 0 mm 4 mps 706 mmHg 19%
    17:00 +12°C° 0 mm 4 mps 707 mmHg 20%
    18:00 +10°C° 0 mm 4 mps 707 mmHg 22%
    19:00 +9°C° 0 mm 3 mps 708 mmHg 24%
    20:00 +9°C° 0 mm 3 mps 708 mmHg 25%
    21:00 +8°C° 0 mm 3 mps 709 mmHg 26%
    22:00 +8°C° 0 mm 3 mps 709 mmHg 27%
    23:00 +7°C° 0 mm 3 mps 709 mmHg 29%

    Day after tomorrow, 23 July, Tuesday

    Time Temperature Precipitation Wind Pressure Humidity
    00:00 +7°C° 0 mm 3 mps 709 mmHg 31%
    01:00 +6°C° 0 mm 2 mps 709 mmHg 33%
    02:00 +5°C° 0 mm 2 mps 709 mmHg 34%
    03:00 +5°C° 0 mm 2 mps 709 mmHg 36%
    04:00 +4°C° 0 mm 2 mps 709 mmHg 37%
    05:00 +4°C° 0 mm 2 mps 710 mmHg 37%
    06:00 +4°C° 0 mm 2 mps 710 mmHg 38%
    07:00 +5°C° 0 mm 1 mps 711 mmHg 38%
    08:00 +6°C° 0 mm 2 mps 711 mmHg 34%
    09:00 +8°C° 0 mm 2 mps 711 mmHg 30%
    10:00 +10°C° 0 mm 2 mps 712 mmHg 26%
    11:00 +10°C° 0 mm 2 mps 711 mmHg 25%
    12:00 +12°C° 0 mm 2 mps 711 mmHg 23%
    13:00 +13°C° 0 mm 2 mps 710 mmHg 22%
    14:00 +13°C° 0 mm 2 mps 710 mmHg 22%
    15:00 +13°C° 0 mm 2 mps 710 mmHg 22%
    16:00 +13°C° 0 mm 2 mps 710 mmHg 23%
    17:00 +12°C° 0 mm 1 mps 710 mmHg 26%
    18:00 +10°C° 0 mm 1 mps 711 mmHg 30%
    19:00 +7°C° 0 mm 0 mps 711 mmHg 33%
    20:00 +8°C° 0 mm 1 mps 711 mmHg 34%
    21:00 +8°C° 0 mm 1 mps 712 mmHg 34%
    22:00 +7°C° 0 mm 1 mps 712 mmHg 35%
    23:00 +7°C° 0 mm 1 mps 712 mmHg 37%

    24 July, Wednesday

    Time Temperature Precipitation Wind Pressure Humidity
    00:00 +5°C° 0 mm 0 mps 712 mmHg 38%
    01:00 +5°C° 0 mm 0 mps 713 mmHg 40%
    02:00 +4°C° 0 mm 0 mps 713 mmHg 41%
    03:00 +5°C° 0 mm 1 mps 713 mmHg 42%
    04:00 +5°C° 0 mm 1 mps 713 mmHg 43%
    05:00 +5°C° 0 mm 1 mps 713 mmHg 42%
    06:00 +4°C° 0 mm 0 mps 714 mmHg 42%
    07:00 +4°C° 0 mm 0 mps 714 mmHg 42%
    08:00 +6°C° 0 mm 0 mps 714 mmHg 36%
    09:00 +10°C° 0 mm 1 mps 714 mmHg 31%
    10:00 +12°C° 0 mm 1 mps 715 mmHg 25%
    11:00 +13°C° 0 mm 1 mps 714 mmHg 23%
    12:00 +14°C° 0 mm 1 mps 713 mmHg 22%
    13:00 +15°C° 0 mm 2 mps 713 mmHg 20%
    14:00 +15°C° 0 mm 2 mps 713 mmHg 20%
    15:00 +15°C° 0 mm 2 mps 712 mmHg 20%
    16:00 +15°C° 0 mm 2 mps 712 mmHg 20%
    17:00 +13°C° 0 mm 1 mps 712 mmHg 23%
    18:00 +11°C° 0 mm 1 mps 712 mmHg 27%
    19:00 +10°C° 0 mm 1 mps 712 mmHg 31%
    20:00 +9°C° 0 mm 1 mps 712 mmHg 32%
    21:00 +8°C° 0 mm 1 mps 712 mmHg 33%
    22:00 +8°C° 0 mm 1 mps 712 mmHg 34%
    23:00 +8°C° 0 mm 1 mps 712 mmHg 35%

    25 July, Thursday

    Time Temperature Precipitation Wind Pressure Humidity
    00:00 +7°C° 0 mm 1 mps 711 mmHg 35%
    01:00 +6°C° 0 mm 2 mps 711 mmHg 36%
    02:00 +6°C° 0 mm 2 mps 711 mmHg 37%
    03:00 +6°C° 0 mm 2 mps 710 mmHg 38%
    04:00 +5°C° 0 mm 2 mps 710 mmHg 39%
    05:00 +5°C° 0 mm 2 mps 710 mmHg 39%
    06:00 +6°C° 0 mm 1 mps 710 mmHg 39%
    07:00 +6°C° 0 mm 1 mps 710 mmHg 39%
    08:00 +8°C° 0 mm 2 mps 710 mmHg 33%
    09:00 +12°C° 0 mm 2 mps 711 mmHg 28%
    10:00 +13°C° 0 mm 3 mps 711 mmHg 22%
    11:00 +16°C° 0 mm 3 mps 710 mmHg 21%
    12:00 +17°C° 0 mm 3 mps 710 mmHg 19%
    13:00 +18°C° 0 mm 3 mps 709 mmHg 17%
    14:00 +18°C° 0 mm 3 mps 709 mmHg 17%
    15:00 +18°C° 0 mm 2 mps 709 mmHg 17%
    16:00 +18°C° 0 mm 2 mps 709 mmHg 17%
    17:00 +15°C° 0 mm 2 mps 709 mmHg 20%
    18:00 +13°C° 0 mm 1 mps 709 mmHg 24%
    19:00 +11°C° 0 mm 1 mps 709 mmHg 28%
    20:00 +10°C° 0 mm 1 mps 709 mmHg 29%
    21:00 +10°C° 0 mm 1 mps 709 mmHg 30%
    22:00 +9°C° 0 mm 1 mps 709 mmHg 31%
    23:00 +9°C° 0 mm 1 mps 709 mmHg 33%

    26 July, Friday

    Time Temperature Precipitation Wind Pressure Humidity
    00:00 +8°C° 0 mm 1 mps 709 mmHg 34%
    01:00 +8°C° 0 mm 1 mps 708 mmHg 36%
    02:00 +8°C° 0 mm 1 mps 708 mmHg 37%
    03:00 +7°C° 0 mm 1 mps 708 mmHg 38%
    04:00 +6°C° 0 mm 0 mps 708 mmHg 39%
    05:00 +6°C° 0 mm 0 mps 708 mmHg 39%
    06:00 +6°C° 0 mm 0 mps 708 mmHg 39%
    07:00 +7°C° 0 mm 1 mps 709 mmHg 39%
    08:00 +9°C° 0 mm 1 mps 709 mmHg 35%
    09:00 +12°C° 0 mm 1 mps 709 mmHg 30%
    10:00 +14°C° 0 mm 1 mps 709 mmHg 25%
    11:00 +15°C° 0 mm 2 mps 709 mmHg 24%
    12:00 +16°C° 0 mm 2 mps 708 mmHg 22%
    13:00 +17°C° 0 mm 2 mps 708 mmHg 20%
    14:00 +17°C° 0 mm 3 mps 707 mmHg 20%
    15:00 +17°C° 0 mm 3 mps 707 mmHg 21%
    16:00 +17°C° 0 mm 3 mps 707 mmHg 21%
    17:00 +14°C° 0 mm 3 mps 708 mmHg 24%
    18:00 +12°C° 0 mm 3 mps 708 mmHg 28%
    19:00 +11°C° 0 mm 3 mps 708 mmHg 31%
    20:00 +10°C° 0 mm 2 mps 708 mmHg 32%
    21:00 +10°C° 0 mm 2 mps 708 mmHg 33%
    22:00 +9°C° 0 mm 2 mps 709 mmHg 34%
    23:00 +9°C° 0 mm 2 mps 709 mmHg 36%
    Show more